Location: Recife
(8.0585°S, 34.8848°W)
Time: 12:59:23
(UTC-03:00)

Injun/Solrad 3 - Pass Details

Date: 18 April 2026
Orbit: 868 x 988 km, 66.8° (Epoch: 14 May)

Event Time Altitude Azimuth Distance (km) Brightness Sun altitude
Rises 19:40:26 0° 213° (SSW) 3,457 11.2 -36.2°
Reaches altitude 10° 19:43:02 10° 220° (SW) 2,514 10.5 -36.8°
Enters shadow 19:46:02 28° 241° (WSW) 1,581 9.4 -37.5°
